TimeIST,TemperatureF,Dew PointF,Humidity,Sea Level PressureIn,VisibilityMPH,Wind Direction,Wind SpeedMPH,Gust SpeedMPH,PrecipitationIn,Events,Conditions,WindDirDegrees,DateUTC
12:00 AM,78.8,71.6,78,29.74,1.6,Calm,Calm,-,N/A,,Haze,0,2013-10-05 18:30:00
1:00 AM,77.0,71.6,83,29.74,1.6,Calm,Calm,-,N/A,,Haze,0,2013-10-05 19:30:00
2:00 AM,75.2,71.6,89,29.71,1.6,Calm,Calm,-,N/A,,Haze,0,2013-10-05 20:30:00
2:30 AM,77,71,77,29.66,1,Calm,Calm,,,,Haze,,2013-10-05 21:00:00
4:00 AM,75.2,71.6,89,29.71,1.6,Calm,Calm,-,N/A,,Haze,0,2013-10-05 22:30:00
5:00 AM,73.4,71.6,94,29.74,1.6,Calm,Calm,-,N/A,,Haze,0,2013-10-05 23:30:00
5:30 AM,74,71,88,29.69,1,Calm,Calm,,,,Haze,,2013-10-06 00:00:00
6:00 AM,73.4,71.6,94,29.77,1.6,Calm,Calm,-,N/A,,Haze,0,2013-10-06 00:30:00
7:00 AM,75.2,71.6,89,29.77,1.6,Calm,Calm,-,N/A,,Haze,0,2013-10-06 01:30:00
9:00 AM,82.4,71.6,70,29.83,2.5,East,5.8,-,N/A,,Haze,100,2013-10-06 03:30:00
10:00 AM,86.0,71.6,62,29.83,2.5,East,5.8,-,N/A,,Haze,100,2013-10-06 04:30:00
11:00 AM,87.8,71.6,58,29.83,2.5,Variable,4.6,-,N/A,,Haze,0,2013-10-06 05:30:00
12:00 PM,87.8,71.6,58,29.80,2.5,Variable,1.2,-,N/A,,Haze,0,2013-10-06 06:30:00
1:00 PM,89.6,69.8,52,29.77,2.5,Variable,3.5,-,N/A,,Haze,0,2013-10-06 07:30:00
2:00 PM,89.6,68.0,49,29.74,2.5,SE,6.9,-,N/A,,Haze,140,2013-10-06 08:30:00
2:30 PM,91,68,37,29.67,2,SE,3.5,,,,Haze,140,2013-10-06 09:00:00
3:00 PM,91.4,68.0,46,29.74,2.5,ESE,5.8,-,N/A,,Haze,110,2013-10-06 09:30:00
4:00 PM,91.4,66.2,43,29.74,2.5,ENE,4.6,-,N/A,,Haze,70,2013-10-06 10:30:00
5:00 PM,91.4,68.0,46,29.74,2.5,East,4.6,-,N/A,,Haze,90,2013-10-06 11:30:00
5:30 PM,89,71,46,29.66,2,ENE,3.5,,,,Haze,70,2013-10-06 12:00:00
6:00 PM,91.4,69.8,49,29.74,2.5,Calm,Calm,-,N/A,,Haze,0,2013-10-06 12:30:00
7:00 PM,86.0,69.8,58,29.77,2.5,Calm,Calm,-,N/A,,Haze,0,2013-10-06 13:30:00
8:00 PM,84.2,71.6,66,29.80,2.5,Calm,Calm,-,N/A,,Haze,0,2013-10-06 14:30:00
8:30 PM,82,71,61,29.73,1,Calm,Calm,,,,Haze,,2013-10-06 15:00:00
9:00 PM,84.2,71.6,66,29.83,1.9,Variable,1.2,-,N/A,,Haze,0,2013-10-06 15:30:00
10:00 PM,80.6,71.6,74,29.83,1.9,East,4.6,-,N/A,,Haze,100,2013-10-06 16:30:00
11:00 PM,80.6,71.6,74,29.83,1.9,Calm,Calm,-,N/A,,Haze,0,2013-10-06 17:30:00